Location: Peach Mountain Observatory
(42.3967°N, 83.9367°W)
Time: 09:52:02
(UTC-04:00)

deb Explorer IX - Pass Details

Date: 25 January 2020
Orbit: 548 x 1100 km, 38.8° (Epoch: 08 April)

Event Time Altitude Azimuth Distance (km) Brightness Sun altitude
Rises 02:52:11 0° 277° (W) 3,912 - -54.9°
Reaches altitude 10° 02:55:08 10° 271° (W) 2,941 - -54.4°
Maximum altitude 03:01:52 43° 204° (SSW) 1,440 - -53.4°
Drops below altitude 10° 03:08:05 10° 135° (SE) 2,708 - -52.3°
Sets 03:10:42 0° 128° (SE) 3,575 - -51.9°
